Tracking 35055 objects as of 19-Aug-2026
HD Live streaming from Space Station
objects crossing your sky now

DIRECTV 3 (DBS/NIMIQ 3)

Track DIRECTV 3 (DBS/NIMIQ 3) now!
DIRECTV 3 (DBS/NIMIQ 3) is classified as:


NORAD ID: 23598
Int'l Code: 1995-029A
Launch date: June 10, 1995
Source: United States (US)
Launch site: FRENCH GUIANA (FRGUI)

On-orbit backup; high resolution TV broadcast; USA and Western Hemispheric countries; 30 TV channels.
Your satellite tracking list
Your tracking list is empty




NASA's NSSDC Master Catalog

Two Line Element Set (TLE):
1 23598U 95029A   26230.76925329 -.00000253  00000-0  00000-0 0  9999
2 23598  12.1062  34.6713 0002750 270.3955 277.3836  0.99005059113389
Source of the keplerian elements: AFSPC